Location: Härggis
(46.9540°N, 8.4897°E)
Time: 23:11:23
(UTC+00:00)

Cosmos 1271 Rocket - Pass Details

Date: 27 May 2022
Orbit: 495 x 539 km, 81.2° (Epoch: 02 July)

Event Time Altitude Azimuth Distance (km) Brightness Sun altitude
Rises 02:10:33 0° 341° (NNW) 2,628 6.8 -12.0°
Reaches altitude 10° 02:12:46 10° 334° (NNW) 1,745 5.7 -11.8°
Maximum altitude 02:16:19 38° 265° (W) 809 3.3 -11.4°
Enters shadow 02:19:06 15° 203° (SSW) 1,459 4.4 -11.1°
